Weather History for Hurlburt Field, FL

Change the Weather History Date:

Thursday, November 29, 2012

  Actual Average Record
Temperature  
Mean Temperature 51 °F -  
Max Temperature 64 °F 65 °F 78 °F (2001)
Min Temperature 38 °F 45 °F 30 °F (2013)
Degree Days  
Heating Degree Days 14    
Growing Degree Days 1 (Base 50)    
Moisture  
Dew Point 49 °F    
Average Humidity 78    
Maximum Humidity 100    
Minimum Humidity 63    
Precipitation  
Precipitation 0.00 in - - ()
Sea Level Pressure  
Sea Level Pressure 30.32 in    
Wind  
Wind Speed 6 mph (ENE)    
Max Wind Speed 12 mph    
Max Gust Speed -    
Visibility 10 miles    
Events Rain    
Averages and records for this station are not official NWS values.
T = Trace of Precipitation, MM = Missing Value Source: NWS Daily Summary

Daily Weather History Graph

Daily Weather History Graph

Search for Another Location

Airport:

Trip Planner

Search our weather history database for the weather conditions in past years. The results will help you decide how hot, cold, wet, or windy it might be!

Date:

Astronomy

Nov. 29, 2012 Rise Set
Actual Time 6:24 AM CST 4:45 PM CST
Civil Twilight 5:58 AM CST 5:11 PM CST
Nautical Twilight 5:29 AM CST 5:41 PM CST
Astronomical Twilight 4:59 AM CST 6:10 PM CST
Moon 5:48 PM CST (11/29) 7:10 AM CST (11/29)
Length of Visible Light 11h 13m
Length of Day
10h 20m
Full, 99% of the Moon is Illuminated
Nov 29
Full
Dec 6
Last Quarter
Dec 13
New
Dec 19
First Quarter
Dec 28
Full

Hourly Weather History & Observations

Time (CST) Temp. Windchill Dew Point Humidity Pressure Visibility Wind Dir Wind Speed Gust Speed Precip Events Conditions
12:55 AM 41.0 °F 37.1 °F 40.3 °F 97% 30.33 in 10.0 mi NNE 5.8 mph - N/A   Clear
1:55 AM 41.5 °F 37.8 °F 41.0 °F 98% 30.34 in 10.0 mi NE 5.8 mph - N/A   Clear
2:55 AM 39.4 °F 35.2 °F 39.2 °F 99% 30.33 in 10.0 mi NNE 5.8 mph - N/A   Clear
3:55 AM 39.6 °F 35.4 °F 39.4 °F 99% 30.33 in 8.0 mi NE 5.8 mph - N/A   Clear
4:55 AM 38.3 °F 35.9 °F 38.3 °F 100% 30.33 in 6.0 mi NNE 3.5 mph - N/A   Clear
5:50 AM 39.2 °F - 39.2 °F 100% 30.35 in 8.0 mi Calm Calm - N/A   Mostly Cloudy
5:55 AM 40.1 °F - 40.1 °F 100% 30.35 in 9.0 mi Calm Calm - N/A   Mostly Cloudy
6:55 AM 41.9 °F 39.0 °F 41.9 °F 100% 30.36 in 8.0 mi North 4.6 mph - N/A   Overcast
7:55 AM 45.3 °F 42.3 °F 45.1 °F 99% 30.37 in 10.0 mi NE 5.8 mph - N/A   Overcast
8:55 AM 49.6 °F - 48.6 °F 96% 30.38 in 10.0 mi NE 6.9 mph - N/A   Overcast
9:55 AM 55.8 °F - 48.6 °F 77% 30.38 in 10.0 mi ENE 9.2 mph - N/A   Overcast
10:11 AM 57.2 °F - 48.2 °F 72% 30.38 in 10.0 mi ENE 10.4 mph - N/A   Scattered Clouds
10:15 AM 57.2 °F - 48.2 °F 72% 30.38 in 10.0 mi East 10.4 mph - N/A   Mostly Cloudy
10:25 AM 59.0 °F - 48.2 °F 67% 30.38 in 10.0 mi East 11.5 mph - N/A Rain Light Rain
10:31 AM 59.0 °F - 48.2 °F 67% 30.38 in 10.0 mi ENE 9.2 mph - N/A Rain Light Rain
10:34 AM 59.0 °F - 48.2 °F 67% 30.38 in 10.0 mi ENE 11.5 mph - N/A   Scattered Clouds
10:37 AM 59.0 °F - 48.2 °F 67% 30.38 in 10.0 mi ENE 10.4 mph - N/A   Mostly Cloudy
10:55 AM 58.8 °F - 48.4 °F 68% 30.36 in 10.0 mi ENE 9.2 mph - 0.00 in   Mostly Cloudy
10:58 AM 59.0 °F - 48.2 °F 67% 30.36 in 10.0 mi ENE 9.2 mph - N/A   Mostly Cloudy
11:21 AM 60.8 °F - 50.0 °F 68% 30.36 in 10.0 mi East 8.1 mph - N/A   Scattered Clouds
11:55 AM 61.3 °F - 49.8 °F 66% 30.34 in 10.0 mi ENE 8.1 mph - N/A   Partly Cloudy
12:16 PM 62.6 °F - 50.0 °F 63% 30.33 in 10.0 mi East 5.8 mph - N/A   Mostly Cloudy
12:45 PM 62.6 °F - 50.0 °F 63% 30.32 in 10.0 mi Variable 6.9 mph - N/A   Light Drizzle
12:54 PM 62.6 °F - 50.0 °F 63% 30.31 in 10.0 mi Variable 4.6 mph - N/A   Light Drizzle
12:55 PM 62.6 °F - 50.4 °F 64% 30.31 in 10.0 mi Variable 3.5 mph - 0.00 in   Scattered Clouds
12:56 PM 62.6 °F - 50.0 °F 63% 30.31 in 10.0 mi Variable 3.5 mph - N/A   Mostly Cloudy
1:05 PM 62.6 °F - 50.0 °F 63% 30.30 in 10.0 mi East 5.8 mph - N/A Rain Light Rain
1:12 PM 62.6 °F - 50.0 °F 63% 30.30 in 10.0 mi East 4.6 mph - N/A   Partly Cloudy
1:35 PM 62.6 °F - 51.8 °F 68% 30.29 in 10.0 mi ESE 3.5 mph - N/A   Light Drizzle
1:50 PM 62.6 °F - 50.0 °F 63% 30.29 in 10.0 mi ESE 3.5 mph - N/A   Clear
1:55 PM 62.6 °F - 50.9 °F 66% 30.29 in 10.0 mi Calm Calm - 0.00 in   Clear
2:04 PM 64.4 °F - 51.8 °F 64% 30.28 in 10.0 mi SSE 6.9 mph - N/A Rain Light Rain
2:11 PM 64.4 °F - 51.8 °F 64% 30.28 in 10.0 mi ESE 4.6 mph - N/A   Clear
2:24 PM 62.6 °F - 51.8 °F 68% 30.29 in 10.0 mi SSE 6.9 mph - N/A Rain Light Rain
2:43 PM 62.6 °F - 51.8 °F 68% 30.29 in 10.0 mi South 8.1 mph - N/A   Clear
2:55 PM 63.3 °F - 51.8 °F 66% 30.28 in 10.0 mi SSE 6.9 mph - 0.00 in   Clear
2:57 PM 62.6 °F - 51.8 °F 68% 30.29 in 10.0 mi South 8.1 mph - N/A Rain Light Rain
3:04 PM 62.6 °F - 51.8 °F 68% 30.28 in 10.0 mi SSE 6.9 mph - N/A   Clear
3:52 PM 60.8 °F - 50.0 °F 68% 30.29 in 10.0 mi SSE 6.9 mph - N/A Rain Light Rain
3:55 PM 61.5 °F - 50.5 °F 67% 30.29 in 10.0 mi SSE 4.6 mph - 0.00 in Rain Light Rain
3:59 PM 60.8 °F - 50.0 °F 68% 30.29 in 10.0 mi SSE 3.5 mph - N/A   Clear
4:11 PM 60.8 °F - 50.0 °F 68% 30.28 in 10.0 mi Calm Calm - N/A   Light Drizzle
4:12 PM 60.8 °F - 50.0 °F 68% 30.28 in 10.0 mi Calm Calm - N/A   Clear
4:55 PM 60.3 °F - 49.8 °F 68% 30.29 in 10.0 mi Calm Calm - 0.00 in   Clear
5:24 PM 55.4 °F - 50.0 °F 82% 30.28 in 10.0 mi Calm Calm - N/A   Mostly Cloudy
5:55 PM 55.6 °F - 51.4 °F 86% 30.28 in 10.0 mi North 3.5 mph - N/A   Overcast
6:24 PM 53.6 °F - 50.0 °F 88% 30.29 in 10.0 mi North 5.8 mph - N/A   Scattered Clouds
6:33 PM 51.8 °F - 50.0 °F 94% 30.29 in 10.0 mi North 3.5 mph - N/A   Mostly Cloudy
6:55 PM 54.0 °F - 52.2 °F 94% 30.30 in 10.0 mi Calm Calm - N/A   Overcast
7:10 PM 53.6 °F - 51.8 °F 94% 30.30 in 10.0 mi North 4.6 mph - N/A   Scattered Clouds
7:23 PM 53.6 °F - 51.8 °F 94% 30.30 in 10.0 mi NNE 4.6 mph - N/A   Mostly Cloudy
7:55 PM 54.9 °F - 51.6 °F 89% 30.30 in 10.0 mi NNE 3.5 mph - N/A   Overcast
8:55 PM 54.0 °F - 50.7 °F 89% 30.31 in 10.0 mi NNE 4.6 mph - N/A   Overcast
9:55 PM 53.6 °F - 51.1 °F 91% 30.30 in 10.0 mi NE 4.6 mph - N/A   Mostly Cloudy
9:58 PM 53.6 °F - 51.8 °F 94% 30.30 in 10.0 mi NE 5.8 mph - N/A   Mostly Cloudy
10:38 PM 53.6 °F - 51.8 °F 94% 30.29 in 10.0 mi NE 4.6 mph - N/A   Mostly Cloudy
10:55 PM 54.3 °F - 51.3 °F 89% 30.29 in 10.0 mi ENE 5.8 mph - N/A   Overcast
11:15 PM 53.6 °F - 50.0 °F 88% 30.28 in 10.0 mi NE 4.6 mph - N/A   Mostly Cloudy
11:55 PM 53.8 °F - 50.9 °F 90% 30.28 in 10.0 mi NE 5.8 mph - N/A   Mostly Cloudy